Hourly Weather Klepachi

Today, 21 April, Wednesday

Time Temperature Precipitation Wind Pressure Humidity
00:00 +7°C° 0 mm 2 mps 744 mmHg 90%
01:00 +6°C° 0 mm 2 mps 744 mmHg 90%
02:00 +6°C° 0 mm 2 mps 744 mmHg 90%
03:00 +6°C° 0 mm 2 mps 744 mmHg 91%
04:00 +5°C° 0 mm 2 mps 744 mmHg 92%
05:00 +5°C° 0 mm 2 mps 744 mmHg 92%
06:00 +6°C° 0.1 mm 2 mps 744 mmHg 87%
07:00 +8°C° 0.1 mm 2 mps 744 mmHg 81%
08:00 +9°C° 0.1 mm 2 mps 744 mmHg 76%
09:00 +10°C° 0.3 mm 3 mps 743 mmHg 69%
10:00 +12°C° 0.3 mm 4 mps 743 mmHg 62%
11:00 +13°C° 0.3 mm 4 mps 743 mmHg 54%
12:00 +13°C° 0.2 mm 4 mps 743 mmHg 54%
13:00 +13°C° 0.2 mm 4 mps 743 mmHg 54%
14:00 +13°C° 0.2 mm 4 mps 743 mmHg 54%
15:00 +13°C° 0.2 mm 4 mps 743 mmHg 56%
16:00 +13°C° 0.2 mm 4 mps 743 mmHg 58%
17:00 +13°C° 0.2 mm 3 mps 742 mmHg 60%
18:00 +12°C° 0.1 mm 3 mps 743 mmHg 66%
19:00 +10°C° 0.1 mm 3 mps 743 mmHg 73%
20:00 +9°C° 0.1 mm 2 mps 743 mmHg 79%
21:00 +8°C° 0 mm 2 mps 743 mmHg 80%
22:00 +8°C° 0 mm 2 mps 743 mmHg 81%
23:00 +7°C° 0 mm 2 mps 743 mmHg 82%

Tomorrow, 22 April, Thursday

Time Temperature Precipitation Wind Pressure Humidity
00:00 +7°C° 0 mm 2 mps 743 mmHg 84%
01:00 +7°C° 0 mm 3 mps 743 mmHg 85%
02:00 +7°C° 0 mm 3 mps 743 mmHg 86%
03:00 +7°C° 0 mm 3 mps 743 mmHg 86%
04:00 +7°C° 0 mm 3 mps 743 mmHg 87%
05:00 +7°C° 0 mm 3 mps 743 mmHg 87%
06:00 +6°C° 0.1 mm 4 mps 743 mmHg 85%
07:00 +7°C° 0.1 mm 4 mps 743 mmHg 82%
08:00 +8°C° 0.1 mm 5 mps 744 mmHg 79%
09:00 +7°C° 0 mm 5 mps 744 mmHg 77%
10:00 +7°C° 0 mm 5 mps 744 mmHg 74%
11:00 +7°C° 0 mm 5 mps 745 mmHg 72%
12:00 +8°C° 0 mm 6 mps 745 mmHg 62%
13:00 +9°C° 0 mm 6 mps 745 mmHg 53%
14:00 +9°C° 0 mm 7 mps 745 mmHg 44%
15:00 +9°C° 0 mm 7 mps 745 mmHg 45%
16:00 +9°C° 0 mm 6 mps 745 mmHg 46%
17:00 +8°C° 0 mm 5 mps 745 mmHg 46%
18:00 +7°C° 0 mm 5 mps 745 mmHg 51%
19:00 +6°C° 0 mm 5 mps 745 mmHg 56%
20:00 +3°C° 0 mm 5 mps 746 mmHg 62%
21:00 +3°C° 0 mm 5 mps 746 mmHg 66%
22:00 +2°C° 0 mm 5 mps 746 mmHg 71%
23:00 +2°C° 0 mm 5 mps 746 mmHg 76%

Day after tomorrow, 23 April, Friday

Time Temperature Precipitation Wind Pressure Humidity
00:00 +1°C° 0 mm 5 mps 746 mmHg 77%
01:00 +1°C° 0 mm 5 mps 746 mmHg 77%
02:00 0°C° 0 mm 5 mps 746 mmHg 77%
03:00 0°C° 0 mm 5 mps 746 mmHg 80%
04:00 0°C° 0 mm 5 mps 746 mmHg 82%
05:00 -1°C° 0 mm 4 mps 746 mmHg 85%
06:00 0°C° 0 mm 5 mps 746 mmHg 83%
07:00 0°C° 0 mm 5 mps 747 mmHg 81%
08:00 +1°C° 0 mm 5 mps 747 mmHg 80%
09:00 +2°C° 0.2 mm 5 mps 747 mmHg 75%
10:00 +2°C° 0.2 mm 5 mps 747 mmHg 70%
11:00 +3°C° 0.2 mm 5 mps 747 mmHg 66%
12:00 +5°C° 0.2 mm 4 mps 747 mmHg 58%
13:00 +6°C° 0.2 mm 4 mps 747 mmHg 50%
14:00 +7°C° 0.2 mm 4 mps 747 mmHg 43%
15:00 +7°C° 0.1 mm 4 mps 747 mmHg 45%
16:00 +7°C° 0.1 mm 5 mps 747 mmHg 48%
17:00 +6°C° 0.1 mm 5 mps 747 mmHg 51%
18:00 +5°C° 0.2 mm 4 mps 747 mmHg 63%
19:00 +3°C° 0.2 mm 4 mps 747 mmHg 74%
20:00 +2°C° 0.2 mm 3 mps 748 mmHg 86%
21:00 +1°C° 0.1 mm 3 mps 748 mmHg 85%
22:00 +1°C° 0.1 mm 3 mps 748 mmHg 85%
23:00 0°C° 0.1 mm 3 mps 748 mmHg 84%

24 April, Saturday

Time Temperature Precipitation Wind Pressure Humidity
00:00 -1°C° 0 mm 3 mps 748 mmHg 85%
01:00 -1°C° 0 mm 3 mps 748 mmHg 86%
02:00 -2°C° 0 mm 3 mps 748 mmHg 86%
03:00 -2°C° 0 mm 3 mps 748 mmHg 87%
04:00 -3°C° 0 mm 4 mps 748 mmHg 87%
05:00 -3°C° 0 mm 4 mps 748 mmHg 88%
06:00 -2°C° 0 mm 4 mps 748 mmHg 86%
07:00 -1°C° 0 mm 5 mps 748 mmHg 84%
08:00 -1°C° 0 mm 6 mps 748 mmHg 82%
09:00 +1°C° 0.2 mm 6 mps 748 mmHg 77%
10:00 +2°C° 0.2 mm 6 mps 748 mmHg 72%
11:00 +2°C° 0.2 mm 6 mps 748 mmHg 67%
12:00 +3°C° 0.3 mm 6 mps 748 mmHg 64%
13:00 +4°C° 0.3 mm 6 mps 748 mmHg 61%
14:00 +5°C° 0.3 mm 6 mps 748 mmHg 58%
15:00 +4°C° 0.3 mm 6 mps 748 mmHg 60%
16:00 +4°C° 0.3 mm 6 mps 748 mmHg 63%
17:00 +4°C° 0.3 mm 6 mps 748 mmHg 66%
18:00 +3°C° 0.1 mm 5 mps 749 mmHg 71%
19:00 +1°C° 0.1 mm 4 mps 749 mmHg 75%
20:00 0°C° 0.1 mm 4 mps 749 mmHg 80%
21:00 -1°C° 0 mm 4 mps 749 mmHg 82%
22:00 -1°C° 0 mm 4 mps 749 mmHg 83%
23:00 -2°C° 0 mm 4 mps 749 mmHg 85%

25 April, Sunday

Time Temperature Precipitation Wind Pressure Humidity
00:00 -2°C° 0 mm 5 mps 749 mmHg 87%
01:00 -4°C° 0 mm 5 mps 749 mmHg 89%
02:00 -4°C° 0 mm 5 mps 749 mmHg 91%
03:00 -4°C° 0.2 mm 6 mps 749 mmHg 92%
04:00 -3°C° 0.2 mm 6 mps 749 mmHg 93%
05:00 -3°C° 0.2 mm 6 mps 748 mmHg 94%
06:00 -2°C° 0.1 mm 6 mps 749 mmHg 88%
07:00 -2°C° 0.1 mm 7 mps 749 mmHg 83%
08:00 -1°C° 0.1 mm 7 mps 749 mmHg 77%
09:00 0°C° 0.2 mm 7 mps 749 mmHg 71%
10:00 +1°C° 0.2 mm 8 mps 749 mmHg 64%
11:00 +2°C° 0.2 mm 8 mps 749 mmHg 57%
12:00 +2°C° 0.2 mm 8 mps 749 mmHg 56%
13:00 +4°C° 0.2 mm 8 mps 748 mmHg 55%
14:00 +4°C° 0.2 mm 8 mps 748 mmHg 54%
15:00 +4°C° 0.1 mm 8 mps 748 mmHg 57%
16:00 +3°C° 0.1 mm 7 mps 748 mmHg 60%
17:00 +3°C° 0.1 mm 7 mps 748 mmHg 64%
18:00 +2°C° 0 mm 6 mps 748 mmHg 68%
19:00 +1°C° 0 mm 6 mps 748 mmHg 71%
20:00 0°C° 0 mm 5 mps 748 mmHg 75%
21:00 -1°C° 0 mm 5 mps 749 mmHg 78%
22:00 -1°C° 0 mm 5 mps 749 mmHg 81%
23:00 -3°C° 0 mm 6 mps 749 mmHg 84%

26 April, Monday

Time Temperature Precipitation Wind Pressure Humidity
00:00 -2°C° 0 mm 6 mps 748 mmHg 82%
01:00 -2°C° 0 mm 6 mps 748 mmHg 80%
02:00 -2°C° 0 mm 6 mps 748 mmHg 79%
03:00 -2°C° 0 mm 6 mps 748 mmHg 79%
04:00 -3°C° 0 mm 7 mps 748 mmHg 80%
05:00 -3°C° 0 mm 7 mps 748 mmHg 81%
06:00 -2°C° 0.1 mm 7 mps 748 mmHg 78%
07:00 -1°C° 0.1 mm 7 mps 748 mmHg 74%
08:00 0°C° 0.1 mm 7 mps 748 mmHg 71%
09:00 +2°C° 0 mm 7 mps 748 mmHg 68%
10:00 +3°C° 0 mm 7 mps 749 mmHg 65%
11:00 +3°C° 0 mm 7 mps 749 mmHg 62%
12:00 +5°C° 0 mm 7 mps 749 mmHg 57%
13:00 +6°C° 0 mm 7 mps 748 mmHg 51%
14:00 +8°C° 0 mm 7 mps 748 mmHg 45%
15:00 +8°C° 0 mm 6 mps 748 mmHg 46%
16:00 +8°C° 0 mm 6 mps 748 mmHg 47%
17:00 +9°C° 0 mm 5 mps 748 mmHg 48%
18:00 +7°C° 0 mm 5 mps 748 mmHg 54%
19:00 +5°C° 0 mm 4 mps 748 mmHg 60%
20:00 +3°C° 0 mm 3 mps 749 mmHg 66%
21:00 +2°C° 0 mm 3 mps 749 mmHg 69%
22:00 +2°C° 0 mm 2 mps 749 mmHg 71%
23:00 +2°C° 0 mm 2 mps 749 mmHg 74%
Show more

We Need Your Consent

Meteoprog and our Service Providers may store and access personal data such as cookies, device identifiers or other similar technologies on your device and process such data to personalise content and ads, as well as provide social media features and to analyse the traffic.

  • Store and/or access information on your device

    Cookies, device identifiers or other information can be stored or accessed on your device for the purposes indicated above.

  • Personalised ads and content, ad and content measurement, audience insights, and products development

    Ads and content can be personalised based on a profile. More data can be added to better personalise ads and content. Ad and content performance can be measured. Insights about the audience who saw the ads and content can be derived. Such data can be used to develop or improve user’s experience, systems and software.

By clicking ‘I Agree’ you will allow the use of indicated cookies, device identifiers, web beacons or other similar technologies. Your settings can be changed in the browser on your device.

For certain purposes, legitimate interests may be relied on, rather than consent. You can read more about this in our Privacy and Cookie Policy.